INTELSAT 36 (IS-36)

Last updated on Oct. 23, 2020, 5:56 a.m. UTC

1 41747U 16053A   20296.75049385 -.00000039  00000-0  00000-0 0  9991
2 41747   0.0137 312.2872 0002543  70.5125 347.5269  1.00271548 15274
UTC
Height (km)
Latitude
Longitude
Inclination
Orbital Period
UTC large
Height (km)
Speed (km/s)
/
Latitude / Longitude
Inclination (degrees)
Orbital Period (minutes)
Azimuth
Elevation
Range (km)
Doppler Factor
iOS Compass Heading
iOS Angle

Next 30 passes for location: Hong Kong

Rise time Rise Azimuth (degrees) Set time Set Azimuth (degrees) Duration Max altitude (degrees)

No matching passes for this satellites